Location: Proctor
(47.8934°N, 114.3048°W)
Time: 11:18:13
(UTC+00:00)

AIST 2D - Pass Details

Date: 01 July 2022
Orbit: 433 x 444 km, 97.0° (Epoch: 09 August)

Event Time Altitude Azimuth Distance (km) Brightness Sun altitude
Rises 05:00:30 0° 17° (NNE) 2,427 ? -10.4°
Reaches altitude 10° 05:02:34 10° 22° (NNE) 1,554 ? -10.6°
Maximum altitude 05:05:49 50° 100° (E) 563 ? -10.9°
Enters shadow 05:08:27 14° 174° (S) 1,303 ? -11.2°
